This is the latest recevied weather packets stored in our database for station/object HOWARD. If no packets are shown the sender has not sent any weather packets the latest 10 day(s).
| Time | Temp. | Humidity | Pressure | Rain* | Wind** | Luminosity | Snow |
|---|---|---|---|---|---|---|---|
| 1788588289 | 2.22° C | 85% | 1011.9 hPa | 0 mm | - | - | - |
| 1788587688 | 1.67° C | 87% | 1011.7 hPa | 0 mm | - | - | - |
| 1788587088 | 1.67° C | 85% | 1011.7 hPa | 0 mm | - | - | - |
| 1788586488 | 1.67° C | 87% | 1011.6 hPa | 0 mm | - | - | - |
| 1788585888 | 1.67° C | 84% | 1011.8 hPa | 0 mm | - | - | - |
| 1788585288 | 2.22° C | 84% | 1011.8 hPa | 0 mm | - | - | - |
| 1788584688 | 1.67° C | 84% | 1011.8 hPa | 0 mm | - | - | - |
| 1788584088 | 1.67° C | 83% | 1012.1 hPa | 0 mm | - | - | - |
| 1788583605 | 1.67° C | 84% | 1012.1 hPa | 0 mm | - | - | - |
| 1788583488 | 1.67° C | 84% | 1012.1 hPa | 0 mm | - | - | - |
| 1788582889 | 1.67° C | 85% | 1012.2 hPa | 0 mm | - | - | - |
| 1788582288 | 2.22° C | 85% | 1012.4 hPa | 0 mm | - | - | - |
| 1788581688 | 2.22° C | 87% | 1012.5 hPa | 0 mm | - | - | - |
| 1788581089 | 2.22° C | 87% | 1012.5 hPa | 0 mm | - | - | - |
| 1788580488 | 2.22° C | 88% | 1011.9 hPa | 0 mm | - | - | - |
| 1788579906 | 2.22° C | 88% | 1012 hPa | 0 mm | - | - | - |
| 1788579289 | 2.22° C | 88% | 1012.1 hPa | 0 mm | - | - | - |
| 1788578688 | 2.22° C | 88% | 1012.3 hPa | 0 mm | - | - | - |
| 1788578088 | 2.22° C | 88% | 1012.3 hPa | 0 mm | - | - | - |
| 1788577488 | 2.22° C | 86% | 1012.3 hPa | 0 mm | - | - | - |
| 1788576888 | 2.22° C | 81% | 1012.3 hPa | 0 mm | - | - | - |
| 1788576288 | 2.78° C | 79% | 1012.1 hPa | 0 mm | - | - | - |
| 1788575688 | 2.78° C | 78% | 1012.1 hPa | 0 mm | - | - | - |
| 1788575088 | 3.33° C | 76% | 1012.1 hPa | 0 mm | - | - | - |
| 1788574488 | 3.89° C | 75% | 1012.1 hPa | 0.25 mm | - | - | - |
* Rain latest hour (hover to see other rain measurements)
** Current wind speed in m/s (hover to see current wind gust speed)